Flag for Chile Weather past 2 weeks in Easter Island, Chile

Now
63 °F

Scattered clouds.


Feels Like: 63 °F
Forecast: 60 / 66 °F
Wind: 13 mph from East

Location: Isla De Pascua

Current Time: Sep 1, 2015 at 8:01:19 PM

Latest Report: Sep 1, 2015 at 7:00 PM


Visibility: N/A

Pressure: 30.36 "Hg

Humidity: 52%

Dew point: 45 °F

Location of Easter IslandLocation

Historic Weather in Easter Island — Graph

°F

Easter Island temperature yesterday

Maximum temperature yesterday: 64 °F (at 2:00 PM)
Minimum temperature yesterday: 57 °F (at 12:00 AM)
Average temperature yesterday: 60 °F

Past Weeks' High & Low Weather Summary

 TemperatureHumidityPressure
High73 °F (Aug 21, 3:00 PM)100% (Aug 22, 4:00 PM)30.42 "Hg (Aug 22, 4:00 PM)
Low54 °F (Aug 30, 1:00 AM)39% (Aug 31, 1:00 PM)29.71 "Hg (Aug 25, 7:00 PM)
Average64 °F70%30.06 "Hg
* Reported Aug 17 7:00 PM — Sep 1 7:00 PM, Easter Island, Weather by CustomWeather, © 2015

Note: Actual official high and low records may vary slightly from our data, if they occured in-between our weather recording intervals... More about our weather records

Advertising

Easter Island weather history for previous 24 hours

 ConditionsComfort  
Time TempWeatherWind HumidityBarometerVisibility
7:00 PM
Tue, Sep 1
63 °FScattered clouds.13 mph52%30.36 "HgN/A
6:00 PM63 °FPartly sunny.13 mph56%30.36 "HgN/A
4:00 PM64 °FPartly sunny.15 mph56%30.36 "HgN/A
3:00 PM64 °FPartly sunny.14 mph56%30.39 "HgN/A
2:00 PM64 °FScattered clouds.15 mph56%30.42 "HgN/A
1:00 PM64 °FScattered clouds.15 mph52%30.42 "HgN/A
12:00 PM64 °FScattered clouds.15 mph52%30.42 "HgN/A
11:00 AM61 °FPartly sunny.15 mph55%30.39 "HgN/A
10:00 AM61 °FScattered clouds.10 mph55%30.39 "HgN/A
9:00 AM59 °FScattered clouds.9 mph55%30.39 "HgN/A
8:00 AM59 °FPassing clouds.10 mph59%30.36 "HgN/A
7:00 AM59 °FPassing clouds.13 mph59%30.33 "HgN/A
6:00 AM59 °FPassing clouds.12 mph59%30.36 "HgN/A
5:00 AM59 °FPassing clouds.13 mph55%30.36 "HgN/A
4:00 AM59 °FPassing clouds.9 mph55%30.39 "HgN/A
3:00 AM59 °FPassing clouds.9 mph59%30.39 "HgN/A
2:00 AM59 °FPassing clouds.10 mph63%30.39 "HgN/A
1:00 AM59 °FPassing clouds.12 mph55%30.39 "HgN/A
12:00 AM59 °FPassing clouds.10 mph55%30.39 "HgN/A
10:00 PM
Mon, Aug 31
59 °FPassing clouds.12 mph55%30.36 "HgN/A
9:00 PM57 °FPassing clouds.9 mph67%30.36 "HgN/A
8:00 PM59 °FSprinkles. Partly sunny.12 mph59%30.36 "HgN/A
Weather by CustomWeather, © 2015

See weather overviewHow to use our weather pages